TimeMDT,TemperatureF,Dew PointF,Humidity,Sea Level PressureIn,VisibilityMPH,Wind Direction,Wind SpeedMPH,Gust SpeedMPH,PrecipitationIn,Events,Conditions,WindDirDegrees,DateUTC
12:53 AM,39.9,19.9,45,30.26,10.0,Calm,Calm,-,N/A,,Clear,0,2013-03-14 06:53:00
1:53 AM,39.9,21.9,49,30.27,10.0,WSW,4.6,-,N/A,,Clear,250,2013-03-14 07:53:00
2:53 AM,37.0,19.9,50,30.27,10.0,Calm,Calm,-,N/A,,Clear,0,2013-03-14 08:53:00
3:53 AM,36.0,19.9,52,30.27,10.0,Calm,Calm,-,N/A,,Clear,0,2013-03-14 09:53:00
4:53 AM,41.0,24.1,51,30.25,10.0,Calm,Calm,-,N/A,,Clear,0,2013-03-14 10:53:00
5:53 AM,34.0,21.0,59,30.29,10.0,SW,4.6,-,N/A,,Clear,220,2013-03-14 11:53:00
6:53 AM,37.0,23.0,57,30.30,10.0,Calm,Calm,-,N/A,,Clear,0,2013-03-14 12:53:00
7:53 AM,37.9,25.0,60,30.33,10.0,Calm,Calm,-,N/A,,Clear,0,2013-03-14 13:53:00
8:53 AM,46.9,28.0,48,30.33,10.0,SE,5.8,-,N/A,,Clear,140,2013-03-14 14:53:00
9:53 AM,51.1,27.0,39,30.33,10.0,SE,9.2,-,N/A,,Clear,140,2013-03-14 15:53:00
10:53 AM,55.9,27.0,33,30.32,10.0,SE,6.9,-,N/A,,Clear,130,2013-03-14 16:53:00
11:53 AM,59.0,25.0,27,30.31,10.0,East,8.1,-,N/A,,Clear,100,2013-03-14 17:53:00
12:53 PM,63.0,25.0,24,30.28,10.0,Calm,Calm,-,N/A,,Clear,0,2013-03-14 18:53:00
1:53 PM,66.9,24.1,20,30.24,10.0,Calm,Calm,-,N/A,,Clear,0,2013-03-14 19:53:00
2:53 PM,68.0,23.0,18,30.21,10.0,Calm,Calm,-,N/A,,Clear,0,2013-03-14 20:53:00
3:53 PM,70.0,23.0,17,30.18,10.0,South,3.5,-,N/A,,Clear,190,2013-03-14 21:53:00
4:53 PM,71.1,23.0,16,30.15,10.0,NNW,4.6,-,N/A,,Clear,340,2013-03-14 22:53:00
5:53 PM,71.1,21.9,16,30.16,10.0,NNW,5.8,-,N/A,,Clear,330,2013-03-14 23:53:00
6:53 PM,66.9,21.0,17,30.15,10.0,North,4.6,-,N/A,,Clear,350,2013-03-15 00:53:00
7:53 PM,57.0,21.0,25,30.17,10.0,NNW,5.8,-,N/A,,Clear,330,2013-03-15 01:53:00
8:53 PM,55.0,21.0,27,30.15,10.0,Calm,Calm,-,N/A,,Clear,0,2013-03-15 02:53:00
9:53 PM,51.1,21.0,31,30.16,10.0,West,3.5,-,N/A,,Clear,280,2013-03-15 03:53:00
10:53 PM,51.1,21.9,32,30.14,10.0,Calm,Calm,-,N/A,,Clear,0,2013-03-15 04:53:00
11:53 PM,48.9,23.0,36,30.13,10.0,Calm,Calm,-,N/A,,Clear,0,2013-03-15 05:53:00